Weather History for KEHO - January, 2007

Change the Weather History Date:

Wednesday, January 3, 2007

  Actual Average (KHKY) Record (KHKY)
Temperature  
Mean Temperature 46 °F -  
Max Temperature 60 °F 49 °F 73 °F (1997)
Min Temperature 32 °F 30 °F 11 °F (1979)
Degree Days  
Heating Degree Days 19    
Moisture  
Dew Point 36 °F    
Average Humidity 72    
Maximum Humidity 100    
Minimum Humidity 42    
Precipitation  
Precipitation 0.00 in - - ()
Sea Level Pressure  
Sea Level Pressure 30.41 in    
Wind  
Wind Speed 1 mph (NE)    
Max Wind Speed 6 mph    
Max Gust Speed -    
Visibility 10 miles    
Events      
Averages and records for this station are not official NWS values.
T = Trace of Precipitation, MM = Missing Value Source: NWS Daily Summary

Daily Weather History Graph

Daily Weather History Graph

Search for Another Location

Airport or City:

Trip Planner

Search our weather history database for the weather conditions in past years. The results will help you decide how hot, cold, wet, or windy it might be!

Date:

Astronomy

Jan. 03, 2007 Rise Set
Actual Time 7:35 AM EST 5:26 PM EST
Civil Twilight 7:07 AM EST 5:54 PM EST
Nautical Twilight 6:35 AM EST 6:26 PM EST
Astronomical Twilight 6:04 AM EST 6:57 PM EST
Moon 5:30 PM EST (1/3) 7:56 AM EST (1/3)
Length of Visible Light 10h 47m
Length of Day
9h 51m
Full, 100% of the Moon is Illuminated
Jan 3
Full
Jan 11
Last Quarter
Jan 18
New
Jan 25
First Quarter
Feb 2
Full

Hourly Weather History & Observations

Time (EST) Temp. Windchill Dew Point Humidity Pressure Visibility Wind Dir Wind Speed Gust Speed Precip Events Conditions
12:18 AM 37.4 °F - 32.0 °F 81% 30.43 in 10.0 mi Calm Calm - N/A   Clear
12:38 AM 35.6 °F - 32.0 °F 87% 30.42 in 10.0 mi Calm Calm - N/A   Clear
12:58 AM 35.6 °F 32.8 °F 32.0 °F 87% 30.42 in 10.0 mi NNE 3.5 mph - N/A   Clear
1:18 AM 35.6 °F - 32.0 °F 87% 30.42 in 10.0 mi Calm Calm - N/A   Clear
1:38 AM 35.6 °F - 32.0 °F 87% 30.42 in 10.0 mi Calm Calm - N/A   Clear
1:58 AM 35.6 °F 32.8 °F 32.0 °F 87% 30.42 in 10.0 mi NNE 3.5 mph - N/A   Clear
2:18 AM 33.8 °F 30.8 °F 32.0 °F 93% 30.43 in 10.0 mi NE 3.5 mph - N/A   Clear
2:38 AM 33.8 °F - 32.0 °F 93% 30.43 in 10.0 mi Calm Calm - N/A   Clear
2:58 AM 33.8 °F - 32.0 °F 93% 30.43 in 10.0 mi Calm Calm - N/A   Clear
3:18 AM 33.8 °F 30.8 °F 32.0 °F 93% 30.43 in 10.0 mi NNE 3.5 mph - N/A   Clear
3:38 AM 33.8 °F 30.8 °F 32.0 °F 93% 30.43 in 10.0 mi NE 3.5 mph - N/A   Clear
3:58 AM 33.8 °F 30.8 °F 32.0 °F 93% 30.43 in 10.0 mi NE 3.5 mph - N/A   Clear
4:18 AM 33.8 °F 30.8 °F 32.0 °F 93% 30.43 in 10.0 mi NNE 3.5 mph - N/A   Clear
4:38 AM 33.8 °F - 32.0 °F 93% 30.43 in 10.0 mi Calm Calm - N/A   Clear
4:58 AM 33.8 °F - 32.0 °F 93% 30.44 in 10.0 mi Calm Calm - N/A   Clear
5:18 AM 33.8 °F 29.6 °F 32.0 °F 93% 30.43 in 10.0 mi NNE 4.6 mph - N/A   Clear
5:38 AM 33.8 °F 30.8 °F 32.0 °F 93% 30.43 in 10.0 mi NNE 3.5 mph - N/A   Clear
5:58 AM 33.8 °F 30.8 °F 32.0 °F 93% 30.44 in 10.0 mi NNE 3.5 mph - N/A   Clear
6:18 AM 33.8 °F 30.8 °F 32.0 °F 93% 30.44 in 10.0 mi NNE 3.5 mph - N/A   Clear
6:38 AM 33.8 °F - 32.0 °F 93% 30.45 in 10.0 mi Calm Calm - N/A   Clear
6:58 AM 33.8 °F - 32.0 °F 93% 30.45 in 10.0 mi Calm Calm - N/A   Clear
7:18 AM 32.0 °F - 32.0 °F 100% 30.46 in 10.0 mi Calm Calm - N/A   Clear
7:38 AM 32.0 °F - 32.0 °F 100% 30.46 in 10.0 mi Calm Calm - N/A   Clear
7:58 AM 33.8 °F - 32.0 °F 93% 30.46 in 10.0 mi Calm Calm - N/A   Clear
8:18 AM 33.8 °F - 32.0 °F 93% 30.47 in 10.0 mi Calm Calm - N/A   Clear
8:58 AM 35.6 °F - 32.0 °F 87% 30.49 in 10.0 mi Calm Calm - N/A   Clear
9:18 AM 41.0 °F - 33.8 °F 76% 30.49 in 10.0 mi Calm Calm - N/A   Clear
9:58 AM 44.6 °F - 35.6 °F 71% 30.50 in 10.0 mi Calm Calm - N/A   Clear
10:18 AM 46.4 °F - 35.6 °F 66% 30.50 in 10.0 mi Calm Calm - N/A   Clear
10:58 AM 50.0 °F - 35.6 °F 58% 30.48 in 10.0 mi Calm Calm - N/A   Clear
11:18 AM 51.8 °F - 35.6 °F 54% 30.47 in 10.0 mi Calm Calm - N/A   Clear
11:38 AM 53.6 °F - 35.6 °F 51% 30.46 in 10.0 mi Calm Calm - N/A   Clear
11:58 AM 55.4 °F - 35.6 °F 47% 30.45 in 10.0 mi Calm Calm - N/A   Clear
12:18 PM 55.4 °F - 35.6 °F 47% 30.44 in 10.0 mi Calm Calm - N/A   Unknown
12:38 PM 55.4 °F - 37.4 °F 51% 30.43 in 10.0 mi SW 3.5 mph - N/A   Clear
12:58 PM 55.4 °F - 37.4 °F 51% 30.41 in 10.0 mi Calm Calm - N/A   Clear
1:18 PM 57.2 °F - 37.4 °F 48% 30.41 in 10.0 mi Calm Calm - N/A   Clear
1:58 PM 59.0 °F - 37.4 °F 45% 30.38 in 10.0 mi Calm Calm - N/A   Clear
2:18 PM 60.8 °F - 37.4 °F 42% 30.38 in 10.0 mi Calm Calm - N/A   Clear
2:58 PM 60.8 °F - 37.4 °F 42% 30.37 in 10.0 mi Calm Calm - N/A   Clear
3:18 PM 60.8 °F - 41.0 °F 48% 30.37 in 10.0 mi Calm Calm - N/A   Clear
3:38 PM 60.8 °F - 41.0 °F 48% 30.37 in 10.0 mi SSE 3.5 mph - N/A   Clear
3:58 PM 60.8 °F - 41.0 °F 48% 30.37 in 10.0 mi SSW 5.8 mph - N/A   Clear
4:18 PM 60.8 °F - 41.0 °F 48% 30.37 in 10.0 mi Calm Calm - N/A   Clear
4:58 PM 59.0 °F - 41.0 °F 51% 30.36 in 10.0 mi Calm Calm - N/A   Clear
5:18 PM 59.0 °F - 41.0 °F 51% 30.35 in 10.0 mi Calm Calm - N/A   Clear
5:38 PM 57.2 °F - 41.0 °F 55% 30.34 in 10.0 mi Calm Calm - N/A   Clear
5:58 PM 59.0 °F - 41.0 °F 51% 30.34 in 10.0 mi Calm Calm - N/A   Clear
6:18 PM 59.0 °F - 41.0 °F 51% 30.34 in 10.0 mi Calm Calm - N/A   Clear
6:38 PM 55.4 °F - 42.8 °F 63% 30.34 in 10.0 mi Calm Calm - N/A   Clear
6:58 PM 57.2 °F - 41.0 °F 55% 30.35 in 10.0 mi Calm Calm - N/A   Scattered Clouds
7:18 PM 53.6 °F - 41.0 °F 62% 30.35 in 10.0 mi Calm Calm - N/A   Mostly Cloudy
7:38 PM 53.6 °F - 42.8 °F 67% 30.34 in 10.0 mi Calm Calm - N/A   Scattered Clouds
7:58 PM 51.8 °F - 42.8 °F 71% 30.34 in 10.0 mi NE 3.5 mph - N/A   Scattered Clouds
8:18 PM 50.0 °F - 42.8 °F 76% 30.34 in 10.0 mi NE 3.5 mph - N/A   Scattered Clouds
8:58 PM 50.0 °F - 42.8 °F 76% 30.35 in 10.0 mi Calm Calm - N/A   Overcast
9:18 PM 51.8 °F - 42.8 °F 71% 30.35 in 10.0 mi Calm Calm - N/A   Overcast
9:38 PM 51.8 °F - 42.8 °F 71% 30.35 in 10.0 mi Calm Calm - N/A   Mostly Cloudy
9:58 PM 50.0 °F - 42.8 °F 76% 30.34 in 10.0 mi Calm Calm - N/A   Mostly Cloudy
10:18 PM 50.0 °F - 42.8 °F 76% 30.34 in 10.0 mi NE 3.5 mph - N/A   Overcast
10:38 PM 50.0 °F - 42.8 °F 76% 30.34 in 10.0 mi Calm Calm - N/A   Overcast
10:58 PM 50.0 °F - 42.8 °F 76% 30.34 in 10.0 mi Calm Calm - N/A   Mostly Cloudy
11:18 PM 50.0 °F - 42.8 °F 76% 30.34 in 10.0 mi Calm Calm - N/A   Overcast
11:38 PM 50.0 °F - 42.8 °F 76% 30.34 in 10.0 mi Calm Calm - N/A   Overcast
11:58 PM 48.2 °F - 44.6 °F 87% 30.33 in 10.0 mi Calm Calm - N/A   Overcast